www.pogodaiklimat.ru

Погода и климат >> Архив погоды >> Россия >> Краснодарский край >> Имеретинка


ПОГОДА в Имеретинке

  • Прогноз погоды в Имеретинке
  • Монитор погоды в Имеретинке

АРХИВ ПОГОДЫ в Имеретинке

Время (UTC), дата Ветер
(напр.,м/с)
 
Видим.   Явления Облачность Т
(С)
Тd
(С)
f
(%)
Тe
(С)
Тes
(С)
Комфортность P
(гПа)
Po
(гПа)
Тmin
(С)
Tmax
(С)
R
(мм)
R24
(мм)
S
(см)
09 19.03 ЮЗ 2 н/о н/о +12.1 +8.2 77 +11 +11 1033.9 1033.8
12 19.03 ЮЗ 3 н/о н/о +12.0 +7.7 75 +10 +10 1027.2 1027.1
15 19.03 З 1 н/о н/о +9.7 +7.1 84 +9 +9 1015.3 1015.2 +12.7
18 19.03 СЗ 1 н/о н/о +5.7 +5.7 100 +4 +4 1012.0 1011.9
21 19.03 С 1 н/о н/о +5.4 +5.4 100 +4 +4 1015.7 1015.6
00 20.03 С 1 н/о н/о +5.4 +5.4 100 +4 +4 1018.4 1018.3
03 20.03 С 1 н/о н/о +6.2 +4.8 91 +5 +5 1019.6 1019.5 +4.5
06 20.03 З 2 н/о н/о +11.3 +6.2 71 +10 +10 1031.4 1031.3 +4.5
09 20.03 З 3 н/о н/о +12.4 +9.8 84 +11 +11 1026.2 1026.1
12 20.03 З 2 н/о н/о +12.1 +10.3 89 +11 +11 1021.3 1021.2
15 20.03 З 1 н/о н/о +10.3 +10.3 100 +10 +10 1014.3 1014.2 +13.6
18 20.03 З 1 н/о н/о +8.3 +8.3 100 +7 +7 1017.1 1017.0
21 20.03 штиль 0 н/о н/о +8.0 +8.0 100 +7 +7 1020.6 1020.5
00 21.03 В 1 н/о н/о +8.4 +8.4 100 +7 +7 1021.5 1021.4
03 21.03 Ю 2 н/о н/о +8.4 +8.0 97 +6 +6 1022.5 1022.4 +7.9
06 21.03 Ю 1 н/о н/о +9.1 +6.0 81 +9 +9 1025.7 1025.6 +7.9
09 21.03 В 3 н/о н/о +10.3 +7.4 82 +8 +8 1028.9 1028.8
12 21.03 ЮВ 4 н/о н/о +11.7 +5.8 67 +10 +10 1031.9 1031.8
15 21.03 ЮВ 4 н/о н/о +10.3 +7.0 80 +8 +8 1023.3 1023.2 +12.6
18 21.03 В 4 н/о н/о +9.3 +7.4 88 +6 +6 1022.3 1022.2
21 21.03 В 3 н/о н/о +9.2 +7.5 89 +7 +7 1025.6 1025.5
00 22.03 В 3 н/о н/о +9.0 +7.0 87 +6 +6 1025.2 1025.1
03 22.03 В 5 н/о н/о +8.1 +8.1 100 +4 +4 1022.8 1022.7 +8.1
06 22.03 В 4 н/о н/о +8.3 +8.0 98 +5 +5 1024.5 1024.4 +8.0
09 22.03 Ю 1 н/о н/о +7.7 +7.3 97 +7 +7 1026.3 1026.2
12 22.03 З 3 н/о н/о +11.5 +8.4 81 +10 +10 1031.9 1031.8
15 22.03 З 1 н/о н/о +9.6 +7.7 88 +9 +9 1021.1 1021.0 +12.0 3
18 22.03 штиль 0 н/о н/о +7.5 +7.5 100 +6 +6 1020.6 1020.5
21 22.03 штиль 0 н/о н/о +6.7 +6.7 100 +6 +6 1021.3 1021.2
00 23.03 В 2 н/о н/о +7.7 +6.8 94 +6 +6 1021.9 1021.8
03 23.03 ЮВ 3 н/о н/о +8.2 +3.5 72 +6 +6 1020.4 1020.3 +6.4
06 23.03 ЮВ 4
{10}
н/о н/о +5.5 +5.5 100 +1 +1 1014.6 1014.5 +5.5
09 23.03 В 6
{12}
н/о н/о +6.4 +5.8 96 +2 +2 1016.7 1016.6
12 23.03 ЮВ 6-12
{12}
н/о н/о +6.1 +5.7 97 +1 +1 1014.0 1013.9
15 23.03 Ю 4
{11}
н/о н/о +5.5 +5.5 100 +1 +1 1014.4 1014.3 +8.7 15
18 23.03 штиль 0 н/о н/о +3.3 +3.3 100 +2 +2 1012.8 1012.7
21 23.03 штиль 0 н/о н/о +1.4 +1.4 100 0 0 1011.6 1011.5
00 24.03 С 1 н/о н/о +0.9 +0.9 100 -1 -1 1013.9 1013.8
03 24.03 штиль 0 н/о н/о +0.7 +0.7 100 -1 -1 1017.3 1017.2 +0.7
06 24.03 СВ 1 н/о н/о +6.7 +3.1 78 +6 +6 1026.9 1026.8 +0.5
09 24.03 ЮЗ 3 н/о н/о +9.5 +3.0 64 +7 +7 1028.5 1028.4
12 24.03 З 2 н/о н/о +9.2 +2.5 63 +8 +8 1023.2 1023.1
15 24.03 З 1 н/о н/о +6.8 +2.7 75 +6 +6 1011.8 1011.7 +10.4
18 24.03 штиль 0 н/о н/о +2.9 +2.9 100 +2 +2 1009.5 1009.4
21 24.03 С 1 н/о н/о +1.6 +1.6 100 -1 -1 1013.8 1013.7
00 25.03 штиль 0 н/о н/о +0.6 +0.6 100 -1 -1 1015.9 1015.8
03 25.03 С 1 н/о н/о +0.2 +0.2 100 -2 -2 1016.9 1016.8 +0.2
06 25.03 С 1 н/о н/о +7.1 -0.4 59 +7 +7 1030.8 1030.7 +0.1

 

Местоположение метеостанции Имеретинка (Краснодарский край, Россия): широта 43.40 долгота 39.95 высота над уровнем моря 2 м.

В архиве по умолчанию представлена погода в Имеретинке за последнюю неделю. Архивные данные за месяц целиком и за предыдущие месяцы, начиная с января 2011 года, Вы можете получить, выбрав интересующий диапазон дат из раскрывающегося списка и нажав кнопку "Ввод!".


*Определитесь, кто Вы:
робот инопланетянин человек

Внимание! Время в таблицах - всемирное. Для получения местного времени необходимо прибавить поправку, которая равна 3 ч.

Смотрите также архив погоды в соседних городах и на ближайших метеорологических станциях:

Погода в Сочи аэропорт (Адлере) (Краснодарский край, Россия) (5 км)
Погода в Сочи (Краснодарский край, Россия) (25 км)
Погода в Кепше (Краснодарский край, Россия) (26 км)
Погода в Красной Поляне (Краснодарский край, Россия) (37 км)
Погода в Горная Карусель 1500 (Краснодарский край, Россия) (39 км)
Погода в Горная Карусель 1000 (Краснодарский край, Россия) (39 км)
Погода на Кордоне Лаура (Краснодарский край, Россия) (44 км)
Погода в Солох Ауле (Краснодарский край, Россия) (51 км)
Погода в Кичмае (Краснодарский край, Россия) (60 км)
Погода в Гузерипле (Адыгея, Россия) (68 км)

Пояснения к столбцам:

Ветер - указаны скорость ветра в м/с - средняя за 10 мин, порывы в срок и между сроками (в фигурных скобках) и направление, откуда дует ветер: С - северный, СВ - северо-восточный, В - восточный, ЮВ - юго-восточный, Ю - южный, ЮЗ - юго-западный, З - западный, СЗ - северо-западный.
Видимость - горизонтальная дальность видимости в метрах или километрах. При видимости от 1 до 10 км при отсутствии осадков обычно наблюдается дымка, при ухудшении видимости до 1 км и менее - туман. В сухую погоду видимость может ухудшаться дымом, пылью или мглою.
Явления - указаны атмосферные явления, наблюдавшиеся в срок или в последний час перед сроком; фигурными скобками обозначены явления, наблюдавшиеся между сроками (за 1-3 часа до срока); квадратными скобками обозначены град или гололедные отложения с указанием их диаметра в мм.
Облачность - указаны через наклонную черту общая и нижняя облачность в баллах и высота нижней границы облаков в метрах; квадратными скобками обозначены формы облаков: Ci - перистые, Cs - перисто-слоистые, Cc - перисто-кучевые, Ac - высококучевые, As - высокослоистые, Sc - слоисто-кучевые, Ns - слоисто-дождевые, Cu - кучевые, Cb - кучево-дождевые. Подробнее классификацию облаков см. в Атласе облаков (PDF).
T - Температура воздуха - температура, измеренная на высоте 2 м над землей.
Td - Температура точки росы - температура, при понижении до которой содержащийся в воздухе водяной пар достигнет насыщения.
f - Относительная влажность воздуха - влажноcть воздуха, измеренная на высоте 2 м над землей.
Te - Эффективная температура - температура, которую ощущает одетый по сезону человек в тени. Характеристика душности погоды. При расчете учитывается влияние влажности воздуха и скорости ветра на теплоощущения человека.
Tes - Эффективная температура на солнце - температура, которую ощущает человек, с поправкой на солнечный нагрев. Характеристика знойности погоды. Зависит от высоты солнца над горизонтом, облачности и скорости ветра. Ночью, в пасмурную погоду, а также при ветре 12 м/с и более поправка равна нулю.
P - Атмосферное давление - приведенное к уровню моря атмосферное давление.
Po - Атмосферное давление - измеренное на уровне метеостанции атмосферное давление.
Tmin - Минимальная температура - минимум температуры воздуха на высоте 2 м над землей.
Tmax - Максимальная температура - максимум температуры воздуха на высоте 2 м над землей.
R - Количество осадков - Количество выпавших осадков за период времени, мм. При наведении курсора мыши на число - период времени, за который выпало указанное количество осадков.
R24 - Количество осадков - Количество выпавших осадков за 24 часа, мм.
S - Снежный покров - Высота снежного покрова, см. При наведении курсора мыши на число - состояние снежного покрова и степень покрытия местности в баллах.